SOLRAD 11A/B AKM, 8753

Orbit data source: Space-Track

SOLRAD 11A/B AKM, 8753 is space debris originally from a launch on Mon, 15 Mar 1976 UTC launched from the Air Force Eastern Test Range (AFETR). Debris objects in space refer to the collection of defunct objects orbiting the Earth. Examples of debris include non-operational satellites, rocket bodies, and fragments generated from explosions, collisions, or faulty payload assembly.

Loading next visibility...
Identifier
8753, 1976-023H
Orbit
Active
Country
Flag of USUS
Related business
Manufacturer
Thiokol/TE
Mission
Spacecraft
Bus & Motor
STAR 13A, Unknown motor
Mass
10 kg wet, 10 kg dry
Launch date (UTC)
1976-03-15 (50 years ago)
Launch vehicle
Unknown
Launch site
Air Force Eastern Test Range (AFETR)
Object type
Payload
Rocket body
Debris
Shape & HBR
Unknown
Radar Cross Section
RCS unknown

Expand to show TLE details & history
Last TLE update: 2 weeks ago

TLE from 2 weeks ago
0 SOLRAD 11A/B AKM
1 08753U 76023H   25294.15860054 -.00000971  00000-0  00000-0 0  9990
2 08753  12.3591 342.2575 0308322  99.0110 357.9784  0.18716591  4962
Epoch: 2025-10-21T03:48Z
TLE epoch observation values (Epoch: 2025-10-21T03:48:23.086Z)
Latitude
12.21484°
Longitude
-7.64178°
Altitude
118,785.956 km
Speed
1.812 km/s
True Right ascension
05h 17m 13s
True Declination
12° 12' 39"
Sunlit
Object was in daylight at epoch
Visualization orbit readout
Latitude
Unknown
Longitude
Unknown
Altitude
Unknown
Speed
Unknown
Apparent Right ascension
Unknown
Apparent Declination
Unknown
Sunlit
N/A
Visualization observer readout
Local Sidereal Time
03:05:20
Azimuth
Unknown
Elevation
Unknown
Doppler factor
Unknown
Orbital elements
Apogee altitude
126,699.982 km
Perigee altitude
118,739.247 km
Semi-major axis
129,097.751 km
Eccentricity
0.03083
Inclination
12.3591°
RAAN
342.2575°
Arg. of periapsis
99.011°
True anomaly
357.84878°
Mean anomaly
357.9784°
Eccentric anomaly
357.9141°
Mean motion
0.04679 °/min
Orbital period
7,693.74 mins
BSTAR
0
Loading maneuver chart data...
Computing Atmospheric mass density...
Loading historical data...
Loading historical data...
Loading historical data...
Loading historical data...
Loading historical data...
Loading historical data...
Loading historical data...

Documentation

Showing up to 5 results
|